Location: La Pernelle
(49.6188°N, 1.2999°W)
Time: 11:40:18
(UTC+00:00)

Cosmos 1954 Rocket - Pass Details

Date: 28 October 2021
Orbit: 751 x 782 km, 74.0° (Epoch: 26 November)

Event Time Altitude Azimuth Distance (km) Brightness Sun altitude
Rises 20:58:30 0° 320° (NW) 3,247 8.1 -39.8°
Reaches altitude 10° 21:02:19 10° 292° (WNW) 2,321 7.1 -40.4°
Maximum altitude 21:04:25 12° 268° (W) 2,151 6.8 -40.6°
Enters shadow 21:04:49 12° 263° (W) 2,157 6.7 -40.7°
